Location: Shepherdstown, WV
(39.4326°N, 77.8042°W)
Time: 05:48:08
(UTC-04:00)

Vanguard 3 - Pass Details

Date: 10 August 2021
Orbit: 510 x 3260 km, 33.3° (Epoch: 21 September)

Event Time Altitude Azimuth Distance (km) Brightness Sun altitude
Rises 22:20:02 0° 280° (W) 6,073 12.5 -21.6°
Reaches altitude 10° 22:24:03 10° 272° (W) 5,378 11.9 -22.2°
Maximum altitude 22:39:00 38° 213° (SSW) 4,225 10.6 -24.2°
Enters shadow 22:48:56 25° 170° (S) 5,013 10.6 -25.4°
Drops below altitude 10° 22:55:58 10° 154° (SSE) 6,029 - -26.3°
Sets 23:00:54 0° 147° (SSE) 6,847 - -26.9°
